SCP
0 0 0 0 0 0 0 0 0 0 0 0 0 0 0 0 0 0 0 0 0 0 0 0 0 0 0 0 0 0 0 0 0 0 0 0 0 0 0 0 0 0 0
0 0 0 0 0 0 0 0 0 0 0 0 0 0 0 0 0 0 0 0 0 0 0 0 0 0 0 0 0 0 0 0 0 0 0 0 0 0 0 0 0 0 0
0 0 0 0 0 0 0 0 0 0 0 0 0 0 0 0 0 0 0 0 0 0 0 0 0 0 0 0 0 0 0 0 0 0 0 0 0 0 0 0 0 0 0
0 0 0 0 0 0 0 0 0 0 0 0 0 0 0 0 0 0 0 0 0 0 0 0 0 0 0 0 0 0 0 0 0 0 0 0 0 0 0 0 0 0 0
0 0 0 0 0 0 0 0 0 0 0 0 0 0 0 0 0 0 0 0 0 0 0 0 0 0 0 0 0 0 0 0 0 0 0 0 0 0 0 0 0 0 0
0 0 0 0 0 0 0 0 0 0 0 0 0 0 0 0 0 0 0 0 0 0 0 0 0 0 0 0 0 0 0 0 0 0 0 0 0 0 0 0 0 0 0
0 0 0 0 0 0 0 0 0 0 0 0 0 0 0 0 0 0 0 0 0 0 0 0 0 0 0 0 0 0 0 0 0 0 0 0 0 0 0 0 0 0 0
0 0 0 0 0 0 0 0 0 0 0 0 0 0 0 0 0 0 0 0 0 0 0 0 0 0 0 0 0 0 0 0 0 0 0 0 0 0 0 0 0 0 0
0 0 0 0 0 0 0 0 0 0 0 0 0 0 0 0 0 0 0 0 0 0 0 0 0 0 0 0 0 0 0 0 0 0 0 0 0 0 0 0 0 0 0
0 0 0 0 0 0 0 0 0 0 0 0 0 0 0 0 0 0 0 0 0 0 0 0 0 0 0 0 0 0 0 0 0 0 0 0 0 0 0 0 0 0 0
0 0 0 0 0 0 0 0 0 0 0 0 0 0 0 0 0 0 0 0 0 0 0 0 0 0 0 0 0 0 0 0 0 0 0 0 0 0 0 0 0 0 0
0 0 0 0 0 0 0 0 0 0 0 0 0 0 0 0 0 0 0 0 0 0 0 0 0 0 0 0 0 0 0 0 0 0 0 0 0 0 0 0 0 0 0
0 0 0 0 0 0 0 0 0 0 0 0 0 0 0 0 0 0 0 0 0 0 0 0 0 0 0 0 0 0 0 0 0 0 0 0 0 0 0 0 0 0 0
0 0 0 0 0 0 0 0 0 0 0 0 0 0 0 0 0 0 0 0 0 0 0 0 0 0 0 0 0 0 0 0 0 0 0 0 0 0 0 0 0 0 0
-0 -0 -0 -0 0 0 0 0 0 0 0 0 0 0 0 0 0 0 0 0 0 0 0 0 0 0 0 0 0 0 0 0 0 0 0 0 0 0 0 0 0 0 0
-0 -0 -0 -0 -0 -0 0 0 0 0 0 0 0 0 0 0 0 0 0 0 0 0 0 0 0 0 0 0 0 0 0 0 0 0 0 0 0 0 0 0 0 0 0
-0 -0 -0 -0 -0 -0 -0 -0 0 -0 0 0 0 0 0 0 0 0 0 0 0 0 0 0 0 0 0 0 0 0 0 0 0 0 0 0 0 0 0 0 0 0 0
-0 -0 -0 -0 -0 -0 -0 -0 -0 -0 -0 -0 0 0 0 0 0 0 0 0 0 0 0 0 0 0 0 0 0 0 0 0 0 0 0 0 0 0 0 0 0 0 0
-0 -0 -0 -0 -0 -0 0 -0 -0 -0 -0 -0 -0 -0 0 0 0 0 0 0 0 0 0 0 0 0 0 0 0 0 0 0 0 0 0 0 0 0 0 0 0 0 0
-0 -0 -0 -0 -0 -0 -0 0 0 0 0 -0 -0 -0 -0 0 0 0 0 0 0 0 0 0 0 0 0 0 0 0 0 0 0 0 0 0 0 0 0 0 0 0 0
0 0 0 0 0 -0 -0 0 0 0 0 0 0 0 0 0 0 0 0 0 0 0 0 0 0 0 0 0 0 0 0 0 0 0 0 0 0 0 0 0 0 0 0
0 0 0 0 0 0 0 0 0 0 0 0 0 0 0 0 0 0 0 0 0 0 0 0 0 0 0 0 0 0 0 0 0 0 0 0 0 0 0 0 0 0 0
0 0 0 0 0 0 0 0 0 0 0 0 0 0 0 0 0 0 0 0 0 0 0 0 0 0 0 0 0 0 0 0 0 0 0 0 0 0 0 0 0 0 0
0 0 0 0 0 0 0 0 0 0 0 0 0 0 0 0 0 0 0 0 0 0 0 0 0 0 0 0 0 0 0 0 0 0 0 0 0 0 0 0 0 0 0
0 0 0 0 0 0 0 0 0 0 0 0 0 0 0 0 0 0 0 0 0 0 0 0 0 0 0 0 0 0 0 0 0 0 0 0 0 0 0 0 0 0 0
0 0 0 0 0 0 0 0 0 0 0 0 0 0 0 0 0 0 0 0 0 0 0 0 0 0 0 0 0 0 0 0 0 0 0 0 0 0 0 0 0 0 0
Wind_Speed_500mb
28 43 52 63 68 78 81 84 87 91 91 91 94 97 94 88 83 77 72 66 61 54 48 44 42 40 39 37 37 36 32 32 40 47 47 51 56 58 60 60 62 62 59
18 29 40 47 52 64 65 73 79 84 85 83 87 96 95 91 86 83 78 72 65 59 51 47 45 44 41 40 40 36 34 35 40 48 51 54 58 59 63 64 65 59 58
12 16 23 33 41 53 57 61 69 76 77 78 82 87 93 92 89 85 80 74 68 59 53 50 46 45 43 44 42 38 37 36 40 47 53 58 61 60 63 65 66 63 57
17 20 21 21 27 37 47 53 58 67 70 73 78 81 84 86 88 87 81 76 70 63 58 54 49 48 45 43 44 40 39 38 39 45 52 59 59 58 63 68 71 66 66
16 19 22 24 27 29 36 40 49 57 63 65 70 74 78 83 84 83 82 77 72 67 62 58 52 49 46 44 46 42 41 39 38 44 50 57 57 58 61 64 68 73 72
26 18 11 14 26 30 32 34 37 46 54 59 64 67 72 75 75 77 76 76 74 70 66 61 55 53 50 48 47 46 43 40 39 45 48 52 53 55 58 58 63 73 78
42 35 25 17 9 15 27 36 40 41 45 51 55 60 67 70 69 68 70 73 73 71 68 63 59 55 52 50 49 48 46 41 40 43 46 46 51 50 54 53 53 61 68
48 46 39 33 24 14 3 14 27 35 40 45 50 52 56 60 64 66 67 67 69 72 70 63 60 56 53 50 50 48 45 42 41 42 43 43 45 44 45 46 53 60 60
53 52 49 43 39 33 22 11 3 15 27 36 43 48 54 59 61 64 66 67 70 72 70 66 63 59 55 53 54 51 47 43 43 41 40 41 42 39 40 39 45 58 60
51 51 49 48 46 43 38 31 21 9 8 21 31 38 45 51 52 56 60 65 68 71 71 70 66 61 57 58 56 52 50 43 43 40 38 36 36 36 34 34 43 49 47
46 45 42 40 40 42 41 39 35 28 15 9 14 22 30 38 45 51 56 62 66 70 72 70 69 65 62 62 57 55 49 45 44 40 38 35 31 31 27 30 40 40 33
43 39 38 39 40 40 39 37 35 34 32 25 16 11 12 20 28 38 48 56 58 65 69 67 64 63 62 62 59 54 54 50 47 42 38 33 29 26 23 27 34 31 27
48 46 43 39 36 34 37 38 37 37 34 30 31 28 17 11 10 21 30 39 51 61 64 64 59 57 58 61 60 58 56 56 49 45 37 32 26 22 19 22 25 20 19
57 53 50 49 46 42 39 38 35 34 37 35 35 34 33 30 18 12 16 27 36 48 57 59 59 58 60 58 62 62 64 60 52 44 39 31 25 21 19 20 17 14 12
65 65 64 62 59 57 52 48 43 38 37 35 37 39 40 34 30 25 25 20 27 37 48 55 60 64 65 64 64 70 67 61 57 48 42 32 25 23 21 20 16 10 6
76 75 75 76 73 70 68 66 54 47 43 38 34 34 38 38 35 30 26 30 23 22 39 56 65 69 70 71 73 75 70 64 57 49 42 35 28 26 26 23 19 11 7
81 83 85 83 81 79 77 76 78 71 63 54 48 42 36 38 39 37 35 31 29 27 46 56 64 68 70 74 74 73 70 63 56 52 45 35 32 31 31 28 24 17 10
85 86 86 86 84 81 80 80 79 82 86 82 67 60 51 43 38 39 33 35 37 38 46 60 65 67 67 70 69 70 70 64 61 55 48 38 39 34 35 32 29 21 14
84 85 83 82 82 80 80 81 82 83 85 89 89 80 67 56 52 43 39 35 43 46 45 55 66 70 65 58 61 69 72 70 65 58 47 49 45 39 39 36 34 26 20
80 78 77 78 79 78 77 76 77 78 83 88 89 88 84 72 64 58 47 41 35 44 49 53 58 70 70 61 64 70 74 75 70 65 61 54 48 42 42 41 37 32 25
73 75 71 70 72 72 71 74 74 72 76 83 89 86 80 76 77 72 58 51 49 42 42 48 55 57 73 72 67 69 72 74 75 71 65 64 54 49 47 44 40 38 30
63 66 67 68 67 68 65 67 70 71 75 79 82 84 77 77 86 88 74 61 56 53 46 41 58 57 60 72 70 72 74 74 81 79 76 69 58 53 52 51 50 45 38
59 62 65 67 67 66 64 69 71 70 72 73 73 75 76 81 85 89 90 77 65 56 49 48 48 62 63 64 66 65 73 76 83 81 79 75 64 61 59 59 58 55 48
54 58 62 66 68 68 70 73 71 71 71 72 72 69 71 75 80 83 83 83 74 66 52 53 45 49 59 66 69 63 60 66 75 76 75 77 66 68 63 63 62 59 53
54 56 58 61 64 67 70 72 73 73 73 73 74 70 71 73 76 77 78 78 79 73 66 55 58 48 57 58 66 65 63 65 66 70 75 80 72 71 68 67 66 64 60
57 60 62 63 66 68 70 72 73 73 75 74 73 73 73 71 70 70 69 72 76 73 72 64 58 64 58 58 61 56 60 63 66 69 74 87 79 75 73 71 69 68 67
Wind_Direction_500mb
220 219 220 220 223 221 224 230 232 230 226 225 222 221 220 219 217 217 217 218 220 221 224 229 233 238 243 247 252 257 264 273 280 293 304 314 318 322 324 322 326 333 334
177 210 213 217 218 216 223 227 229 230 231 228 224 222 221 219 219 219 219 220 222 224 228 232 235 239 244 247 252 257 266 276 284 297 310 316 321 323 324 329 333 338 336
167 192 209 216 219 218 222 223 224 228 232 230 228 225 222 221 221 222 223 225 227 229 233 238 240 244 245 248 253 258 265 274 285 295 308 316 319 325 328 332 334 335 339
148 160 169 186 211 220 221 222 224 228 230 230 231 229 225 223 224 225 225 227 228 231 235 239 241 245 249 250 252 258 263 272 285 297 306 311 317 328 329 332 332 336 342
116 154 167 180 188 195 211 221 224 227 232 233 233 230 227 225 226 226 228 230 231 233 236 240 242 246 249 249 251 256 261 270 285 296 304 309 318 326 329 332 330 335 343
66 80 118 178 197 199 203 203 217 227 233 233 232 232 230 227 226 228 232 233 233 235 238 242 244 245 247 248 250 253 260 268 282 292 302 308 317 325 327 330 334 337 341
56 58 66 78 116 195 208 209 209 212 222 232 234 232 231 231 231 232 233 234 236 238 241 243 243 246 247 248 249 251 257 266 277 287 298 308 316 322 326 329 334 336 336
49 51 55 57 58 64 128 216 220 222 223 223 231 235 234 233 234 235 236 236 238 241 243 244 246 248 248 248 250 251 255 263 274 286 299 307 314 320 324 330 333 334 337
40 41 40 43 47 45 48 47 274 236 233 234 230 227 230 231 234 236 237 237 237 240 243 243 244 244 245 245 246 249 252 260 271 282 295 306 313 319 321 329 332 333 342
27 29 29 29 33 38 37 39 35 7 263 244 238 236 235 232 229 233 237 239 239 240 241 241 241 242 244 245 246 247 251 257 266 279 291 301 308 312 318 329 333 338 340
17 19 18 14 14 19 23 30 31 30 22 335 275 249 239 239 234 232 232 235 239 242 241 240 240 241 242 244 244 245 250 251 260 272 285 297 304 304 313 330 337 340 341
4 7 9 9 7 360 359 1 8 17 24 17 2 327 278 255 247 241 240 239 236 240 243 244 241 242 243 245 245 244 243 246 253 264 276 287 296 299 314 327 337 337 342
351 351 352 354 356 357 353 351 352 354 355 360 358 353 348 330 285 262 249 246 244 241 241 241 238 238 242 243 241 238 238 243 249 256 268 279 287 288 299 315 331 331 339
333 336 337 335 336 340 343 345 349 348 344 340 337 334 337 337 335 318 280 258 245 242 242 240 234 231 236 238 236 232 233 238 245 252 260 269 274 275 278 295 316 328 348
322 322 322 322 323 323 325 329 330 333 333 332 334 325 322 321 327 310 303 285 261 249 246 243 237 231 230 227 224 227 230 233 237 244 253 260 264 261 259 272 292 316 329
312 311 310 310 311 312 312 309 308 308 306 309 312 317 313 305 307 296 284 281 273 256 242 242 241 235 232 229 225 226 227 229 233 238 245 250 255 250 247 253 269 283 290
303 301 301 301 302 302 301 300 298 293 293 292 295 297 300 307 299 297 287 272 262 247 239 247 246 244 237 234 230 230 231 231 231 234 239 242 249 243 241 239 252 263 271
295 293 293 295 294 292 291 289 287 286 288 286 283 287 289 296 298 287 288 272 258 244 242 242 247 249 244 236 231 232 233 231 230 231 232 239 246 240 239 234 243 249 257
291 291 292 291 289 288 287 285 283 282 280 278 280 280 279 281 286 290 281 273 262 261 257 248 248 250 249 242 232 232 233 231 230 228 229 237 242 235 234 227 232 236 242
290 289 288 287 287 286 285 283 280 278 278 277 275 274 279 277 275 276 277 273 270 266 264 262 254 251 251 244 232 230 230 229 224 222 226 232 237 233 231 226 225 228 227
286 287 288 287 286 286 286 284 282 280 277 273 271 271 272 276 273 268 267 269 265 265 275 272 264 256 246 249 238 232 229 228 224 226 224 226 232 228 228 222 219 219 215
287 288 289 287 285 282 282 283 281 279 276 275 275 273 269 265 264 266 262 260 263 261 256 267 265 262 256 249 247 236 229 226 220 226 223 224 226 225 226 219 214 211 208
292 291 289 288 287 289 288 283 280 279 279 279 277 276 274 266 260 260 262 258 258 259 256 254 258 258 260 259 253 244 237 228 225 228 227 220 222 222 223 218 214 207 204
287 287 286 288 289 288 285 282 283 282 281 281 279 277 274 270 265 260 257 255 253 253 253 243 249 256 256 257 254 246 238 233 230 231 229 219 221 222 221 217 213 209 205
293 291 290 289 288 286 285 284 284 284 283 280 279 278 275 271 268 263 259 257 250 247 246 247 235 245 257 257 255 250 243 238 235 229 226 216 217 223 221 215 211 207 204
296 295 293 291 290 290 289 288 287 286 284 283 281 278 276 273 271 266 259 255 251 245 244 244 241 235 245 256 259 252 245 242 234 227 222 216 213 216 218 215 210 207 205
Wind_Speed_850mb
28 43 52 63 68 78 81 84 87 91 91 91 94 97 94 88 83 77 72 66 61 54 48 44 42 40 39 37 37 36 32 32 40 47 47 51 56 58 60 60 62 62 59
18 29 40 47 52 64 65 73 79 84 85 83 87 96 95 91 86 83 78 72 65 59 51 47 45 44 41 40 40 36 34 35 40 48 51 54 58 59 63 64 65 59 58
12 16 23 33 41 53 57 61 69 76 77 78 82 87 93 92 89 85 80 74 68 59 53 50 46 45 43 44 42 38 37 36 40 47 53 58 61 60 63 65 66 63 57
17 20 21 21 27 37 47 53 58 67 70 73 78 81 84 86 88 87 81 76 70 63 58 54 49 48 45 43 44 40 39 38 39 45 52 59 59 58 63 68 71 66 66
16 19 22 24 27 29 36 40 49 57 63 65 70 74 78 83 84 83 82 77 72 67 62 58 52 49 46 44 46 42 41 39 38 44 50 57 57 58 61 64 68 73 72
26 18 11 14 26 30 32 34 37 46 54 59 64 67 72 75 75 77 76 76 74 70 66 61 55 53 50 48 47 46 43 40 39 45 48 52 53 55 58 58 63 73 78
42 35 25 17 9 15 27 36 40 41 45 51 55 60 67 70 69 68 70 73 73 71 68 63 59 55 52 50 49 48 46 41 40 43 46 46 51 50 54 53 53 61 68
48 46 39 33 24 14 3 14 27 35 40 45 50 52 56 60 64 66 67 67 69 72 70 63 60 56 53 50 50 48 45 42 41 42 43 43 45 44 45 46 53 60 60
53 52 49 43 39 33 22 11 3 15 27 36 43 48 54 59 61 64 66 67 70 72 70 66 63 59 55 53 54 51 47 43 43 41 40 41 42 39 40 39 45 58 60
51 51 49 48 46 43 38 31 21 9 8 21 31 38 45 51 52 56 60 65 68 71 71 70 66 61 57 58 56 52 50 43 43 40 38 36 36 36 34 34 43 49 47
46 45 42 40 40 42 41 39 35 28 15 9 14 22 30 38 45 51 56 62 66 70 72 70 69 65 62 62 57 55 49 45 44 40 38 35 31 31 27 30 40 40 33
43 39 38 39 40 40 39 37 35 34 32 25 16 11 12 20 28 38 48 56 58 65 69 67 64 63 62 62 59 54 54 50 47 42 38 33 29 26 23 27 34 31 27
48 46 43 39 36 34 37 38 37 37 34 30 31 28 17 11 10 21 30 39 51 61 64 64 59 57 58 61 60 58 56 56 49 45 37 32 26 22 19 22 25 20 19
57 53 50 49 46 42 39 38 35 34 37 35 35 34 33 30 18 12 16 27 36 48 57 59 59 58 60 58 62 62 64 60 52 44 39 31 25 21 19 20 17 14 12
65 65 64 62 59 57 52 48 43 38 37 35 37 39 40 34 30 25 25 20 27 37 48 55 60 64 65 64 64 70 67 61 57 48 42 32 25 23 21 20 16 10 6
76 75 75 76 73 70 68 66 54 47 43 38 34 34 38 38 35 30 26 30 23 22 39 56 65 69 70 71 73 75 70 64 57 49 42 35 28 26 26 23 19 11 7
81 83 85 83 81 79 77 76 78 71 63 54 48 42 36 38 39 37 35 31 29 27 46 56 64 68 70 74 74 73 70 63 56 52 45 35 32 31 31 28 24 17 10
85 86 86 86 84 81 80 80 79 82 86 82 67 60 51 43 38 39 33 35 37 38 46 60 65 67 67 70 69 70 70 64 61 55 48 38 39 34 35 32 29 21 14
84 85 83 82 82 80 80 81 82 83 85 89 89 80 67 56 52 43 39 35 43 46 45 55 66 70 65 58 61 69 72 70 65 58 47 49 45 39 39 36 34 26 20
80 78 77 78 79 78 77 76 77 78 83 88 89 88 84 72 64 58 47 41 35 44 49 53 58 70 70 61 64 70 74 75 70 65 61 54 48 42 42 41 37 32 25
73 75 71 70 72 72 71 74 74 72 76 83 89 86 80 76 77 72 58 51 49 42 42 48 55 57 73 72 67 69 72 74 75 71 65 64 54 49 47 44 40 38 30
63 66 67 68 67 68 65 67 70 71 75 79 82 84 77 77 86 88 74 61 56 53 46 41 58 57 60 72 70 72 74 74 81 79 76 69 58 53 52 51 50 45 38
59 62 65 67 67 66 64 69 71 70 72 73 73 75 76 81 85 89 90 77 65 56 49 48 48 62 63 64 66 65 73 76 83 81 79 75 64 61 59 59 58 55 48
54 58 62 66 68 68 70 73 71 71 71 72 72 69 71 75 80 83 83 83 74 66 52 53 45 49 59 66 69 63 60 66 75 76 75 77 66 68 63 63 62 59 53
54 56 58 61 64 67 70 72 73 73 73 73 74 70 71 73 76 77 78 78 79 73 66 55 58 48 57 58 66 65 63 65 66 70 75 80 72 71 68 67 66 64 60
57 60 62 63 66 68 70 72 73 73 75 74 73 73 73 71 70 70 69 72 76 73 72 64 58 64 58 58 61 56 60 63 66 69 74 87 79 75 73 71 69 68 67
Wind_Direction_850mb
220 219 220 220 223 221 224 230 232 230 226 225 222 221 220 219 217 217 217 218 220 221 224 229 233 238 243 247 252 257 264 273 280 293 304 314 318 322 324 322 326 333 334
177 210 213 217 218 216 223 227 229 230 231 228 224 222 221 219 219 219 219 220 222 224 228 232 235 239 244 247 252 257 266 276 284 297 310 316 321 323 324 329 333 338 336
167 192 209 216 219 218 222 223 224 228 232 230 228 225 222 221 221 222 223 225 227 229 233 238 240 244 245 248 253 258 265 274 285 295 308 316 319 325 328 332 334 335 339
148 160 169 186 211 220 221 222 224 228 230 230 231 229 225 223 224 225 225 227 228 231 235 239 241 245 249 250 252 258 263 272 285 297 306 311 317 328 329 332 332 336 342
116 154 167 180 188 195 211 221 224 227 232 233 233 230 227 225 226 226 228 230 231 233 236 240 242 246 249 249 251 256 261 270 285 296 304 309 318 326 329 332 330 335 343
66 80 118 178 197 199 203 203 217 227 233 233 232 232 230 227 226 228 232 233 233 235 238 242 244 245 247 248 250 253 260 268 282 292 302 308 317 325 327 330 334 337 341
56 58 66 78 116 195 208 209 209 212 222 232 234 232 231 231 231 232 233 234 236 238 241 243 243 246 247 248 249 251 257 266 277 287 298 308 316 322 326 329 334 336 336
49 51 55 57 58 64 128 216 220 222 223 223 231 235 234 233 234 235 236 236 238 241 243 244 246 248 248 248 250 251 255 263 274 286 299 307 314 320 324 330 333 334 337
40 41 40 43 47 45 48 47 274 236 233 234 230 227 230 231 234 236 237 237 237 240 243 243 244 244 245 245 246 249 252 260 271 282 295 306 313 319 321 329 332 333 342
27 29 29 29 33 38 37 39 35 7 263 244 238 236 235 232 229 233 237 239 239 240 241 241 241 242 244 245 246 247 251 257 266 279 291 301 308 312 318 329 333 338 340
17 19 18 14 14 19 23 30 31 30 22 335 275 249 239 239 234 232 232 235 239 242 241 240 240 241 242 244 244 245 250 251 260 272 285 297 304 304 313 330 337 340 341
4 7 9 9 7 360 359 1 8 17 24 17 2 327 278 255 247 241 240 239 236 240 243 244 241 242 243 245 245 244 243 246 253 264 276 287 296 299 314 327 337 337 342
351 351 352 354 356 357 353 351 352 354 355 360 358 353 348 330 285 262 249 246 244 241 241 241 238 238 242 243 241 238 238 243 249 256 268 279 287 288 299 315 331 331 339
333 336 337 335 336 340 343 345 349 348 344 340 337 334 337 337 335 318 280 258 245 242 242 240 234 231 236 238 236 232 233 238 245 252 260 269 274 275 278 295 316 328 348
322 322 322 322 323 323 325 329 330 333 333 332 334 325 322 321 327 310 303 285 261 249 246 243 237 231 230 227 224 227 230 233 237 244 253 260 264 261 259 272 292 316 329
312 311 310 310 311 312 312 309 308 308 306 309 312 317 313 305 307 296 284 281 273 256 242 242 241 235 232 229 225 226 227 229 233 238 245 250 255 250 247 253 269 283 290
303 301 301 301 302 302 301 300 298 293 293 292 295 297 300 307 299 297 287 272 262 247 239 247 246 244 237 234 230 230 231 231 231 234 239 242 249 243 241 239 252 263 271
295 293 293 295 294 292 291 289 287 286 288 286 283 287 289 296 298 287 288 272 258 244 242 242 247 249 244 236 231 232 233 231 230 231 232 239 246 240 239 234 243 249 257
291 291 292 291 289 288 287 285 283 282 280 278 280 280 279 281 286 290 281 273 262 261 257 248 248 250 249 242 232 232 233 231 230 228 229 237 242 235 234 227 232 236 242
290 289 288 287 287 286 285 283 280 278 278 277 275 274 279 277 275 276 277 273 270 266 264 262 254 251 251 244 232 230 230 229 224 222 226 232 237 233 231 226 225 228 227
286 287 288 287 286 286 286 284 282 280 277 273 271 271 272 276 273 268 267 269 265 265 275 272 264 256 246 249 238 232 229 228 224 226 224 226 232 228 228 222 219 219 215
287 288 289 287 285 282 282 283 281 279 276 275 275 273 269 265 264 266 262 260 263 261 256 267 265 262 256 249 247 236 229 226 220 226 223 224 226 225 226 219 214 211 208
292 291 289 288 287 289 288 283 280 279 279 279 277 276 274 266 260 260 262 258 258 259 256 254 258 258 260 259 253 244 237 228 225 228 227 220 222 222 223 218 214 207 204
287 287 286 288 289 288 285 282 283 282 281 281 279 277 274 270 265 260 257 255 253 253 253 243 249 256 256 257 254 246 238 233 230 231 229 219 221 222 221 217 213 209 205
293 291 290 289 288 286 285 284 284 284 283 280 279 278 275 271 268 263 259 257 250 247 246 247 235 245 257 257 255 250 243 238 235 229 226 216 217 223 221 215 211 207 204
296 295 293 291 290 290 289 288 287 286 284 283 281 278 276 273 271 266 259 255 251 245 244 244 241 235 245 256 259 252 245 242 234 227 222 216 213 216 218 215 210 207 205